Location: Flotzheim
(48.8375°N, 10.8136°E)
Time: 03:46:43
(UTC+00:00)

CZ-2C R/B - Pass Details

Date: 23 January 2021
Orbit: 785 x 870 km, 98.2° (Epoch: 26 February)

Event Time Altitude Azimuth Distance (km) Brightness Sun altitude
Exits shadow 18:29:46 59° 70° (ENE) 995 2.7 -24.3°
Maximum altitude 18:30:22 63° 101° (E) 963 2.6 -24.4°
Drops below altitude 10° 18:35:54 10° 182° (S) 2,508 5.2 -25.3°
Sets 18:38:19 0° 186° (S) 3,443 6.0 -25.7°
